User: anonymous
Location: The D'Auria's Ocala Star Observatory
(29.0276°N, 82.1742°W)
Time: 04:25:16
(UTC-04:00)
Language:

Abrixas rocket - Orbit

View from above orbital plane
View from above orbital plane
View from above satellite
View from above satellite

Ground track
Ground track

The orbit data is extracted from the following two-line orbital elements,

1 25723U 99022C   14204.37083319  .00002469  00000-0  91427-4 0  6991
2 25723 048.4259 334.9970 0016202 031.0740 358.7851 15.31367351842707
Epoch (UTC): 23 July 2014 08:53:59
Eccentricity: 0.0016202
inclination: 48.4259°
perigee height: 460 km
apogee height: 483 km
right ascension of ascending node: 334.9970°
argument of perigee: 31.0740°
revolutions per day: 15.31367351
mean anomaly at epoch: 358.7851°
orbit number at epoch: 84270

The dashed part of the orbit path shows where the satellite is in the earth's shadow,  

DLR